Regional Weather Roundup
Issued by NWS

Home | Current Version | Previous Version | Text Only | Print | Product List | Glossary On
Versions: 1 2 3 4 5 6 7 8 9 10 11 12 13 14 15 16 17 18 19 20 21 22 23 24 25 26 27 28 29 30 31 32 33 34 35 36 37 38 39 40 41 42 43 44 45 46 47 48 49 50
000
ASCA42 TJSJ 251611
RWRPR
PUERTO RICO/U.S. VIRGIN ISLANDS HOURLY WEATHER ROUNDUP
NATIONAL WEATHER SERVICE SAN JUAN PR
1200 PM AST FRI JUL 25 2014

PRZ001-004-251700-
PUERTO RICO

CITY           SKY/WX    TMP DP  RH WIND       PRES   REMARKS
SAN JUAN LMM   PTSUNNY   88  75  66 NE20      30.08S HX  97
PONCE          MOSUNNY   91  75  59 SE12G17   30.01S HX 102
MAYAGUEZ       MOSUNNY   93  70  46 E8        30.05  HX  99
AGUADILLA      MOSUNNY   84  75  74 E21G28    30.09S HX  92
CEIBA          CLOUDY    88  73  62 E15G22    30.11S HX  96
$$

PRZ006-007-251700-
U.S. VIRGIN ISLANDS

CITY           SKY/WX    TMP DP  RH WIND       PRES   REMARKS
CHARLOTTE AMA  MOSUNNY   88  75  66 SE17G24   30.07S HX  97
CHRISTIANSTED  MOSUNNY   90  73  58 E20G31    30.07F HX  98
$$

HOURLY WEATHER ROUNDUP FOR THE NEWS MEDIA

CITY           SKY/WX    TMP DP  RH WIND       PRES   REMARKS
MIAMI          PTSUNNY   86  73  65 VRB5      30.10S HX  93
ORLANDO        MOSUNNY   89  75  63 S7        30.09S HX  99
NEW YORK       MOSUNNY   80  52  37 VRB3      30.02S
NEWARK         MOSUNNY   80  53  39 NW7       30.02S
CHICAGO        CLOUDY    70  54  56 S13       30.01F
HARTFORD       SUNNY     77  55  46 NE12      29.96F
BOSTON         SUNNY     74  52  46 SE7       29.97F
DALLAS         MOSUNNY   89  69  51 SW8       30.02S HX  93
PHILADELPHIA   MOSUNNY   78  55  44 W7        30.03F



USA.gov is the U.S. government's official web portal to all federal, state and local government web resources and services.